Regional Weather Roundup
Issued by NWS Jackson, KY

Home | Current Version | Previous Version | Graphics & Text | Print | Product List | Glossary On
Versions: 1 2 3 4 5 6 7 8 9 10 11 12 13 14 15 16 17 18 19 20 21 22 23 24 25 26 27 28 29 30 31 32 33 34 35 36 37 38 39 40 41 42 43 44 45 46 47 48 49 50
220
ASUS43 KJKL 271510
RWRJKL

EAST KENTUCKY HOURLY WEATHER ROUNDUP
NATIONAL WEATHER SERVICE JACKSON KY
1100 AM EDT THU JUL 27 2017

NOTE: "FAIR" INDICATES FEW OR NO CLOUDS BELOW 12,000 FEET WITH
NO SIGNIFICANT WEATHER AND/OR OBSTRUCTIONS TO VISIBILITY.

* THESE REPORTS ARE NOT UNDER NWS QUALITY CONTROL AND MAY NOT
  REPORT WEATHER SUCH AS PRECIPITATION AND FOG.

KYZ079-080-083-085-087-088-110-112-115-119-120-271600
...EASTERN KENTUCKY...

CITY           SKY/WX    TMP DP  RH WIND       PRES   REMARKS
JACKSON        CLOUDY    74  72  93 CALM      30.02F FOG
LONDON         MOSUNNY   83  71  67 SW12      30.04F
SOMERSET*      CLOUDY    82  72  69 W10       30.04F
MONTICELLO*    PTSUNNY   86  77  74 W14       30.05F HX  97
WILLIAMSBURG*    N/A     84  73  70 SW7       30.04F HX  91
MIDDLESBORO*   CLOUDY    82  73  74 S7        30.05F
HARLAN APT*    CLOUDY    81  72  74 CALM      30.06F
PIKE CO APT*   TSTM      70  70 100 CALM      30.06S
BIG SANDY APT* RAIN      72  72 100 S5        30.02F
MOREHEAD APT*  CLOUDY    75  72  88 CALM      30.02R
$$

KYZ035-036-041-042-044-050-067-078-099-271600
...CENTRAL KENTUCKY...

CITY           SKY/WX    TMP DP  RH WIND       PRES   REMARKS
MT STERLING*   CLOUDY    81  73  78 NW3       30.02R
FLEMING/MASON* CLOUDY    77  73  87 SW3       30.00S
DANVILLE*      CLOUDY    82  73  74 W6        30.03S
LEXINGTON      CLOUDY    83  73  72 W9        30.00F
FRANKFORT      CLOUDY    83  73  72 SW8       29.98S
LOUISVILLE     CLOUDY    83  75  77 CALM      29.97S HX  90
LEBANON*         N/A     82  73  74 SW8       30.01S HAZE
GLASGOW*       PTSUNNY   83  73  72 SW8       30.01S
BOWLING GREEN  CLOUDY    86  76  71 SW8       30.00S HX  96
$$

KYZ091>093-OHZ055-061-077-WVZ005-015-034-035-042-271600
...SOUTHERN OHIO/WEST VIRGINIA...

CITY           SKY/WX    TMP DP  RH WIND       PRES   REMARKS
COVINGTON      CLOUDY    79  76  90 W6        29.97S
COLUMBUS       CLOUDY    79  68  69 SW7       29.96S
DAYTON         CLOUDY    76  70  82 CALM      29.96F
WILMINGTON     PTSUNNY   77  73  87 W5        29.96F
HUNTINGTON     TSTM      73  70  90 W3        30.00R VSB 1
CHARLESTON     CLOUDY    75  68  78 S12       30.00S
PINEVILLE*     CLOUDY    72  68  87 MISG      30.13R
BECKLEY        LGT RAIN  70  67  90 CALM      30.11R FOG
BLUEFIELD      CLOUDY    75  66  73 W10       30.13S
LOGAN CO APT*  RAIN      70  68  94 CALM      30.05F
$$

VAZ002-007-008-TNZ017-027-036-066-071-271600
...SOUTHWEST VIRGINIA/EAST TENNESSEE...

CITY           SKY/WX    TMP DP  RH WIND       PRES   REMARKS
WISE*          CLOUDY    73  72  94 SW14      30.13F
JONESVILLE*    PTSUNNY   81  72  74 SW10      30.09F
ABINGDON*      CLOUDY    77  71  81 W8        30.12S
BRISTOL        CLOUDY    76  72  87 VRB3      30.09F
MORRISTOWN*    SUNNY     84  72  65 W15       30.07S
SEVIERVILLE*   MOSUNNY   84  70  61 SW9       30.06S
KNOXVILLE      CLOUDY    80  69  69 SW9       30.06F
LAFOLLETTE*    SUNNY     81  73  78 CALM      30.09F
OAK RIDGE      MOSUNNY   82  69  64 W8        30.07F
CROSSVILLE     CLOUDY    79  71  76 W7        30.12S
NASHVILLE      PTSUNNY   88  73  61 W6        30.03F HX  95
$$

...KEY TO REMARKS...
VSB - VISIBILITY IN MILES
WCI - WIND CHILL INDEX
HX  - HEAT INDEX

$$




USA.gov is the U.S. government's official web portal to all federal, state and local government web resources and services.